Regional Weather Roundup
Issued by NWS

Home | Current Version | Previous Version | Graphics & Text | Print | Product List | Glossary On
Versions: 1 2 3 4 5 6 7 8 9 10 11 12 13 14 15 16 17 18 19 20 21 22 23 24 25 26 27 28 29 30 31 32 33 34 35 36 37 38 39 40 41 42 43 44 45 46 47 48 49
000
ASUS45 KCYS 130610
RWRWY

WYOMING REGIONAL WEATHER ROUNDUP
NATIONAL WEATHER SERVICE CHEYENNE WY
1100 PM MST FRI FEB 12 2016

NOTE:  "FAIR" INDICATES FEW OR NO CLOUDS BELOW 12,000 FEET
WITH NO SIGNIFICANT WEATHER AND/OR OBSTRUCTIONS TO VISIBILITY.

WYZ001-130700-
YELLOWSTONE NATIONAL PARK

CITY           SKY/WX    TMP DP  RH WIND       PRES   REMARKS
LK YELLOWSTONE   N/A     27  19  72 CALM      30.24F
6HR MIN TEMP:  26; 6HR MAX TEMP:  39;

W YELLOWSTONE  NOT AVBL

$$
WYZ002>013-054>058-071-098>099-130700-
NORTHERN WYOMING

CITY           SKY/WX    TMP DP  RH WIND       PRES   REMARKS
JACKSON        FAIR      28  25  86 N14       30.23S WCI  17
CODY           FAIR      52  23  32 SW6       30.07F
GREYBULL       FAIR      35  28  75 SE5       30.09F WCI  31
6HR MIN TEMP:  32; 6HR MAX TEMP:  52;

WORLAND        FAIR      30  27  88 S7        30.10S WCI  23
6HR MIN TEMP:  29; 6HR MAX TEMP:  50;

SHERIDAN       FAIR      29  26  89 SW6       30.07F WCI  23
6HR MIN TEMP:  28; 6HR MAX TEMP:  46;

BUFFALO        FAIR      37  29  72 SW5       30.08F WCI  33
GILLETTE       FAIR      30  28  92 S20       30.11F WCI  17
6HR MIN TEMP:  30; 6HR MAX TEMP:  43;

HULETT         MOCLDY    36  28  75 SW15G21   30.12F WCI  26
NEWCASTLE      FAIR      28  27  93 S7        30.20F WCI  21

$$
WYZ014>020-022>026-101>103-130700-
CENTRAL WYOMING

CITY           SKY/WX    TMP DP  RH WIND       PRES   REMARKS
BIG PINEY      FAIR      23  20  88 CALM      30.26F
6HR MIN TEMP:  23; 6HR MAX TEMP:  44;

PINEDALE         N/A     23  21  93 CALM      30.27S
DUBOIS         FAIR      32  16  51 NW17      30.18S WCI  21
LANDER         FAIR      33  27  78 S5        30.13F WCI  29
6HR MIN TEMP:  30; 6HR MAX TEMP:  43;

RIVERTON       FAIR      33  27  78 SW12      30.14F WCI  24
6HR MIN TEMP:  31; 6HR MAX TEMP:  45;

CASPER         FAIR      42  24  49 SW16      30.13F
6HR MIN TEMP:  36; 6HR MAX TEMP:  44;

DOUGLAS        FOG       30  29  96 SE14      30.16F VSB 1   WCI  19
6HR MIN TEMP:  30; 6HR MAX TEMP:  38;


$$
WYZ021-027>030-104>119-130700-
SOUTHERN WYOMING

CITY           SKY/WX    TMP DP  RH WIND       PRES   REMARKS
EVANSTON       FAIR      37  15  40 S6        30.27F WCI  32
6HR MIN TEMP:  37; 6HR MAX TEMP:  45;

FORT BRIDGER   CLEAR     36  18  48 W12       30.29F WCI  27
ROCK SPRINGS   FAIR      36  19  50 W10       30.25F WCI  28
6HR MIN TEMP:  35; 6HR MAX TEMP:  45;

DIXON          FAIR      19  14  79 CALM      30.32S
RAWLINS        FAIR      38  21  50 SW14      30.23F WCI  30
6HR MIN TEMP:  38; 6HR MAX TEMP:  41;

SARATOGA       FAIR      34  25  69 SE3       30.26S
LARAMIE        FAIR      41  21  44 SW18      30.20F
6HR MIN TEMP:  36; 6HR MAX TEMP:  46;

CHEYENNE       CLOUDY    30  30 100 SW18      30.18F FOG     WCI  18
6HR MIN TEMP:  30; 6HR MAX TEMP:  45;

TORRINGTON     MOCLDY    31  29  92 E13       30.18F WCI  21
6HR MIN TEMP:  31; 6HR MAX TEMP:  34;

PINE BLUFFS    FOG       30  30 100 S7        30.22F VSB 1/2 WCI  23

$$



USA.gov is the U.S. government's official web portal to all federal, state and local government web resources and services.